EN

Hourly Weather Bolshie Motykaly

Today, 16 May, Sunday

Time Temperature Precipitation Wind Pressure Humidity
00:00 +11°C° 0 mm 1 mps 745 mmHg 83%
01:00 +9°C° 0 mm 2 mps 745 mmHg 85%
02:00 +9°C° 0 mm 2 mps 745 mmHg 87%
03:00 +9°C° 0 mm 2 mps 745 mmHg 88%
04:00 +9°C° 0 mm 3 mps 744 mmHg 89%
05:00 +9°C° 0 mm 3 mps 744 mmHg 90%
06:00 +11°C° 0 mm 3 mps 744 mmHg 86%
07:00 +12°C° 0 mm 4 mps 744 mmHg 82%
08:00 +13°C° 0 mm 4 mps 744 mmHg 78%
09:00 +15°C° 0 mm 5 mps 744 mmHg 74%
10:00 +16°C° 0 mm 5 mps 744 mmHg 70%
11:00 +17°C° 0 mm 5 mps 744 mmHg 66%
12:00 +19°C° 0.4 mm 5 mps 744 mmHg 66%
13:00 +19°C° 0.4 mm 5 mps 743 mmHg 65%
14:00 +20°C° 0.4 mm 5 mps 743 mmHg 64%
15:00 +19°C° 0.6 mm 4 mps 743 mmHg 67%
16:00 +19°C° 0.6 mm 4 mps 743 mmHg 71%
17:00 +19°C° 0.6 mm 3 mps 742 mmHg 74%
18:00 +18°C° 1 mm 3 mps 742 mmHg 79%
19:00 +17°C° 1 mm 3 mps 742 mmHg 83%
20:00 +15°C° 1 mm 2 mps 742 mmHg 87%
21:00 +15°C° 0.5 mm 2 mps 742 mmHg 89%
22:00 +14°C° 0.5 mm 2 mps 742 mmHg 92%
23:00 +13°C° 0.5 mm 3 mps 742 mmHg 94%

Tomorrow, 17 May, Monday

Time Temperature Precipitation Wind Pressure Humidity
00:00 +14°C° 0.4 mm 2 mps 742 mmHg 95%
01:00 +13°C° 0.4 mm 2 mps 742 mmHg 96%
02:00 +13°C° 0.4 mm 2 mps 742 mmHg 97%
03:00 +13°C° 0.2 mm 2 mps 742 mmHg 97%
04:00 +13°C° 0.2 mm 2 mps 742 mmHg 97%
05:00 +13°C° 0.2 mm 2 mps 742 mmHg 96%
06:00 +13°C° 0 mm 2 mps 743 mmHg 91%
07:00 +14°C° 0 mm 2 mps 743 mmHg 86%
08:00 +15°C° 0 mm 2 mps 743 mmHg 81%
09:00 +16°C° 0.1 mm 2 mps 743 mmHg 75%
10:00 +17°C° 0.1 mm 2 mps 743 mmHg 69%
11:00 +19°C° 0.1 mm 2 mps 743 mmHg 63%
12:00 +20°C° 0 mm 1 mps 742 mmHg 59%
13:00 +21°C° 0 mm 1 mps 742 mmHg 55%
14:00 +22°C° 0 mm 1 mps 742 mmHg 52%
15:00 +22°C° 0 mm 1 mps 741 mmHg 52%
16:00 +22°C° 0 mm 1 mps 741 mmHg 53%
17:00 +22°C° 0 mm 1 mps 741 mmHg 54%
18:00 +20°C° 0 mm 1 mps 741 mmHg 57%
19:00 +19°C° 0 mm 1 mps 740 mmHg 61%
20:00 +18°C° 0 mm 1 mps 740 mmHg 65%
21:00 +16°C° 0 mm 2 mps 740 mmHg 69%
22:00 +16°C° 0 mm 2 mps 740 mmHg 72%
23:00 +14°C° 0 mm 3 mps 739 mmHg 76%

Day after tomorrow, 18 May, Tuesday

Time Temperature Precipitation Wind Pressure Humidity
00:00 +14°C° 0 mm 2 mps 739 mmHg 79%
01:00 +14°C° 0 mm 2 mps 739 mmHg 81%
02:00 +13°C° 0 mm 2 mps 739 mmHg 83%
03:00 +13°C° 0 mm 2 mps 738 mmHg 85%
04:00 +13°C° 0 mm 2 mps 738 mmHg 86%
05:00 +12°C° 0 mm 1 mps 738 mmHg 88%
06:00 +14°C° 0 mm 2 mps 738 mmHg 84%
07:00 +15°C° 0 mm 2 mps 738 mmHg 79%
08:00 +16°C° 0 mm 2 mps 738 mmHg 75%
09:00 +17°C° 0.1 mm 3 mps 738 mmHg 71%
10:00 +18°C° 0.1 mm 4 mps 738 mmHg 68%
11:00 +19°C° 0.1 mm 4 mps 738 mmHg 64%
12:00 +17°C° 0.4 mm 5 mps 738 mmHg 68%
13:00 +16°C° 0.4 mm 6 mps 738 mmHg 73%
14:00 +16°C° 0.4 mm 7 mps 739 mmHg 77%
15:00 +15°C° 0.3 mm 7 mps 739 mmHg 80%
16:00 +14°C° 0.3 mm 7 mps 739 mmHg 82%
17:00 +12°C° 0.3 mm 8 mps 740 mmHg 85%
18:00 +11°C° 0.2 mm 8 mps 740 mmHg 86%
19:00 +11°C° 0.2 mm 7 mps 741 mmHg 87%
20:00 +10°C° 0.2 mm 7 mps 741 mmHg 88%
21:00 +10°C° 0.7 mm 7 mps 741 mmHg 89%
22:00 +9°C° 0.7 mm 6 mps 742 mmHg 91%
23:00 +9°C° 0.7 mm 6 mps 742 mmHg 92%

19 May, Wednesday

Time Temperature Precipitation Wind Pressure Humidity
00:00 +9°C° 0.2 mm 6 mps 742 mmHg 92%
01:00 +9°C° 0.2 mm 6 mps 743 mmHg 92%
02:00 +8°C° 0.2 mm 5 mps 743 mmHg 92%
03:00 +8°C° 0 mm 5 mps 743 mmHg 93%
04:00 +8°C° 0 mm 5 mps 743 mmHg 94%
05:00 +7°C° 0 mm 5 mps 744 mmHg 95%
06:00 +8°C° 0 mm 5 mps 744 mmHg 92%
07:00 +9°C° 0 mm 5 mps 745 mmHg 90%
08:00 +10°C° 0 mm 5 mps 745 mmHg 87%
09:00 +12°C° 0.1 mm 5 mps 745 mmHg 81%
10:00 +13°C° 0.1 mm 5 mps 745 mmHg 76%
11:00 +13°C° 0.1 mm 5 mps 745 mmHg 70%
12:00 +14°C° 0 mm 5 mps 745 mmHg 66%
13:00 +15°C° 0 mm 5 mps 745 mmHg 61%
14:00 +16°C° 0 mm 5 mps 745 mmHg 57%
15:00 +16°C° 0 mm 5 mps 745 mmHg 59%
16:00 +16°C° 0 mm 5 mps 745 mmHg 60%
17:00 +16°C° 0 mm 5 mps 745 mmHg 62%
18:00 +14°C° 0 mm 4 mps 746 mmHg 69%
19:00 +13°C° 0 mm 4 mps 746 mmHg 76%
20:00 +11°C° 0 mm 3 mps 746 mmHg 83%
21:00 +10°C° 0 mm 3 mps 746 mmHg 84%
22:00 +9°C° 0 mm 3 mps 747 mmHg 86%
23:00 +8°C° 0 mm 3 mps 747 mmHg 87%

20 May, Thursday

Time Temperature Precipitation Wind Pressure Humidity
00:00 +7°C° 0 mm 3 mps 747 mmHg 86%
01:00 +7°C° 0 mm 3 mps 747 mmHg 85%
02:00 +5°C° 0 mm 3 mps 747 mmHg 83%
03:00 +6°C° 0 mm 2 mps 747 mmHg 83%
04:00 +5°C° 0 mm 2 mps 747 mmHg 84%
05:00 +5°C° 0 mm 2 mps 747 mmHg 84%
06:00 +7°C° 0 mm 3 mps 748 mmHg 79%
07:00 +9°C° 0 mm 3 mps 748 mmHg 75%
08:00 +11°C° 0 mm 3 mps 748 mmHg 71%
09:00 +12°C° 0 mm 3 mps 748 mmHg 67%
10:00 +13°C° 0 mm 4 mps 748 mmHg 63%
11:00 +15°C° 0 mm 4 mps 748 mmHg 59%
12:00 +15°C° 0.1 mm 4 mps 748 mmHg 57%
13:00 +16°C° 0.1 mm 3 mps 748 mmHg 55%
14:00 +17°C° 0.1 mm 3 mps 748 mmHg 53%
15:00 +17°C° 0 mm 3 mps 748 mmHg 54%
16:00 +17°C° 0 mm 3 mps 748 mmHg 54%
17:00 +17°C° 0 mm 3 mps 748 mmHg 55%
18:00 +14°C° 0 mm 3 mps 748 mmHg 61%
19:00 +14°C° 0 mm 2 mps 748 mmHg 68%
20:00 +13°C° 0 mm 2 mps 748 mmHg 75%
21:00 +12°C° 0 mm 2 mps 749 mmHg 78%
22:00 +10°C° 0 mm 3 mps 749 mmHg 82%
23:00 +9°C° 0 mm 3 mps 749 mmHg 85%

21 May, Friday

Time Temperature Precipitation Wind Pressure Humidity
00:00 +8°C° 0 mm 3 mps 749 mmHg 88%
01:00 +8°C° 0 mm 3 mps 749 mmHg 91%
02:00 +7°C° 0 mm 2 mps 750 mmHg 94%
03:00 +7°C° 0 mm 2 mps 750 mmHg 95%
04:00 +6°C° 0 mm 2 mps 750 mmHg 95%
05:00 +6°C° 0 mm 2 mps 750 mmHg 96%
06:00 +8°C° 0 mm 3 mps 750 mmHg 86%
07:00 +8°C° 0 mm 4 mps 749 mmHg 77%
08:00 +11°C° 0 mm 4 mps 749 mmHg 67%
09:00 +12°C° 0 mm 5 mps 749 mmHg 63%
10:00 +13°C° 0 mm 5 mps 749 mmHg 59%
11:00 +14°C° 0 mm 5 mps 749 mmHg 54%
12:00 +14°C° 0 mm 5 mps 748 mmHg 54%
13:00 +15°C° 0 mm 5 mps 748 mmHg 54%
14:00 +15°C° 0 mm 5 mps 748 mmHg 53%
15:00 +15°C° 0 mm 5 mps 747 mmHg 53%
16:00 +15°C° 0 mm 5 mps 747 mmHg 54%
17:00 +15°C° 0 mm 5 mps 747 mmHg 54%
18:00 +13°C° 0 mm 4 mps 747 mmHg 60%
19:00 +12°C° 0 mm 3 mps 747 mmHg 66%
20:00 +10°C° 0 mm 2 mps 747 mmHg 72%
21:00 +10°C° 0 mm 2 mps 747 mmHg 74%
22:00 +9°C° 0 mm 2 mps 747 mmHg 75%
23:00 +8°C° 0 mm 2 mps 747 mmHg 77%
Show more

We Need Your Consent

Meteoprog and our Service Providers may store and access personal data such as cookies, device identifiers or other similar technologies on your device and process such data to personalise content and ads, as well as provide social media features and to analyse the traffic.

  • Store and/or access information on your device

    Cookies, device identifiers or other information can be stored or accessed on your device for the purposes indicated above.

  • Personalised ads and content, ad and content measurement, audience insights, and products development

    Ads and content can be personalised based on a profile. More data can be added to better personalise ads and content. Ad and content performance can be measured. Insights about the audience who saw the ads and content can be derived. Such data can be used to develop or improve user’s experience, systems and software.

By clicking ‘I Agree’ you will allow the use of indicated cookies, device identifiers, web beacons or other similar technologies. Your settings can be changed in the browser on your device.

For certain purposes, legitimate interests may be relied on, rather than consent. You can read more about this in our Privacy and Cookie Policy.